sat.trackr.live / text

‹ back to catalog

STARLINK-31453

NORAD 59522 · 2024-073M

PAYLOAD ACTIVE UNKNOWN

§ Identity

Operator
Country
US
Launch date
2024-04-17
Launch site
AFETR
Launch vehicle
Mass (kg)
RCS (m²)

Purposes: comms

External: N2YO · Heavens-Above · Gunter

§ Orbital elements

Epoch: 2026-05-24T16:59:09.385728Z

Period
94.27 min
Inclination
43.0013°
Eccentricity
0.0002132
Mean motion
15.27607263 rev/d
Perigee alt
481.5 km
Apogee alt
484.4 km
Semi-major
6,861.1 km
B*
8.3606e-4
RAAN
230.9353°
Arg perigee
279.0689°
Mean anomaly
80.9921°
Rev number
11,800

§ Raw data

STARLINK-314531 59522U 24073M   26144.70774752  .00022835  00000+0  83606-3 0  99902 59522  43.0013 230.9353 0002132 279.0689  80.9921 15.27607263118008

JSON: /api/v1/satellites/59522 · /tle

For live sub-satellite position, see the globe view (requires WebGL).

§ Visibility from observer

Set your observer location to see the next 7 days of passes ≥ 10°. The values pass through the URL so the page stays shareable.

No JS? Fill the form by hand. The geolocation button needs JavaScript.